| time (UTC) | temp C | wind direction | speed KPH | gust KPH | rain 1hr cm | rain 24hr cm | rain mn cm | humidity % | barometer mb |
| 20260506204518 | 8 | 208 | 4.8 | 14.5 | 0.00 | 0.00 | 0.00 | 60 | 1012.6 |
| 20260506204002 | 8 | 241 | 4.8 | 14.5 | 0.00 | 0.00 | 0.00 | 60 | 1012.6 |
| 20260506202502 | 8 | 203 | 4.8 | 16.1 | 0.00 | 0.00 | 0.00 | 60 | 1012.7 |
| 20260506201004 | 8 | 212 | 3.2 | 17.7 | 0.00 | 0.00 | 0.00 | 60 | 1012.8 |
| 20260506200504 | 8 | 200 | 6.4 | 16.1 | 0.00 | 0.00 | 0.00 | 60 | 1012.8 |
| 20260506200011 | 8 | 217 | 4.8 | 16.1 | 0.00 | 0.00 | 0.00 | 60 | 1012.8 |
| 20260506195503 | 8 | 219 | 1.6 | 12.9 | 0.00 | 0.00 | 0.00 | 60 | 1012.8 |
| 20260506195006 | 8 | 186 | 4.8 | 12.9 | 0.00 | 0.00 | 0.00 | 60 | 1012.8 |
| 20260506194514 | 9 | 210 | 1.6 | 8.0 | 0.00 | 0.00 | 0.00 | 60 | 1012.8 |
| 20260506194008 | 9 | 198 | 1.6 | 9.7 | 0.00 | 0.00 | 0.00 | 61 | 1012.8 |
| 20260506193508 | 9 | 214 | 3.2 | 9.7 | 0.00 | 0.00 | 0.00 | 60 | 1012.5 |
| 20260506193020 | 9 | 195 | 3.2 | 9.7 | 0.00 | 0.00 | 0.00 | 60 | 1012.5 |
| 20260506192003 | 9 | 197 | 1.6 | 9.7 | 0.00 | 0.00 | 0.00 | 60 | 1012.7 |
| 20260506191504 | 9 | 199 | 1.6 | 11.3 | 0.00 | 0.00 | 0.00 | 61 | 1012.7 |
| 20260506191003 | 9 | 207 | 1.6 | 11.3 | 0.00 | 0.00 | 0.00 | 61 | 1012.7 |
| 20260506190507 | 9 | 208 | 0.0 | 4.8 | 0.00 | 0.00 | 0.00 | 61 | 1012.6 |
| 20260506190008 | 10 | 195 | 0.0 | 4.8 | 0.00 | 0.00 | 0.00 | 61 | 1012.7 |
| 20260506185504 | 10 | 217 | 0.0 | 6.4 | 0.00 | 0.00 | 0.00 | 61 | 1012.7 |
| 20260506185003 | 10 | 219 | 1.6 | 6.4 | 0.00 | 0.00 | 0.00 | 61 | 1012.7 |
| 20260506184511 | 10 | 191 | 0.0 | 6.4 | 0.00 | 0.00 | 0.00 | 60 | 1012.7 |
| 20260506184003 | 10 | 212 | 0.0 | 6.4 | 0.00 | 0.00 | 0.00 | 60 | 1012.7 |
| 20260506183508 | 10 | 200 | 0.0 | 8.0 | 0.00 | 0.00 | 0.00 | 60 | 1012.6 |
| 20260506183016 | 10 | 182 | 1.6 | 8.0 | 0.00 | 0.00 | 0.00 | 59 | 1012.7 |
| 20260506182507 | 10 | 214 | 1.6 | 6.4 | 0.00 | 0.00 | 0.00 | 57 | 1012.8 |
| 20260506182010 | 10 | 196 | 1.6 | 3.2 | 0.00 | 0.00 | 0.00 | 57 | 1012.8 |
| 20260506181520 | 10 | 207 | 0.0 | 1.6 | 0.00 | 0.00 | 0.00 | 58 | 1012.8 |
| 20260506181008 | 10 | 203 | 0.0 | 4.8 | 0.00 | 0.00 | 0.00 | 58 | 1012.9 |
| 20260506180510 | 10 | 349 | 0.0 | 4.8 | 0.00 | 0.00 | 0.00 | 58 | 1012.8 |
| 20260506180005 | 10 | 15 | 0.0 | 3.2 | 0.00 | 0.00 | 0.00 | 57 | 1012.8 |
| 20260506175503 | 10 | 23 | 0.0 | 3.2 | 0.00 | 0.00 | 0.00 | 58 | 1012.8 |
| 20260506175003 | 10 | 42 | 0.0 | 3.2 | 0.00 | 0.00 | 0.00 | 59 | 1012.8 |
| 20260506174513 | 10 | 100 | 1.6 | 4.8 | 0.00 | 0.00 | 0.00 | 59 | 1012.9 |
| 20260506174004 | 10 | 72 | 1.6 | 4.8 | 0.00 | 0.00 | 0.00 | 60 | 1012.9 |
| 20260506173504 | 10 | 110 | 1.6 | 4.8 | 0.00 | 0.00 | 0.00 | 59 | 1012.8 |
| 20260506173012 | 10 | 81 | 1.6 | 3.2 | 0.00 | 0.00 | 0.00 | 60 | 1012.8 |
| 20260506172503 | 10 | 115 | 0.0 | 6.4 | 0.00 | 0.00 | 0.00 | 61 | 1012.8 |
| 20260506172003 | 10 | 89 | 1.6 | 8.0 | 0.00 | 0.00 | 0.00 | 61 | 1012.8 |
| 20260506171516 | 10 | 107 | 1.6 | 8.0 | 0.00 | 0.00 | 0.00 | 60 | 1012.8 |
| 20260506171007 | 10 | 48 | 1.6 | 9.7 | 0.00 | 0.00 | 0.00 | 60 | 1012.9 |
| 20260506170508 | 10 | 354 | 3.2 | 9.7 | 0.00 | 0.00 | 0.00 | 59 | 1013.0 |
| 20260506170022 | 10 | 127 | 3.2 | 8.0 | 0.00 | 0.00 | 0.00 | 59 | 1013.0 |
| 20260506165007 | 10 | 50 | 1.6 | 11.3 | 0.00 | 0.00 | 0.00 | 58 | 1013.1 |
| 20260506164508 | 10 | 61 | 1.6 | 8.0 | 0.00 | 0.00 | 0.00 | 59 | 1013.2 |
| 20260506164003 | 10 | 39 | 1.6 | 9.7 | 0.00 | 0.00 | 0.00 | 60 | 1013.2 |
| 20260506163504 | 10 | 30 | 4.8 | 9.7 | 0.00 | 0.00 | 0.00 | 57 | 1013.3 |
| 20260506163017 | 11 | 214 | 1.6 | 11.3 | 0.00 | 0.00 | 0.00 | 55 | 1013.3 |
| 20260506162505 | 10 | 221 | 4.8 | 11.3 | 0.00 | 0.00 | 0.00 | 55 | 1013.4 |
| 20260506162010 | 10 | 148 | 1.6 | 8.0 | 0.00 | 0.00 | 0.00 | 54 | 1013.4 |
| 20260506161514 | 10 | 236 | 3.2 | 11.3 | 0.00 | 0.00 | 0.00 | 56 | 1013.6 |
| 20260506161004 | 10 | 155 | 1.6 | 11.3 | 0.00 | 0.00 | 0.00 | 58 | 1013.7 |
| 20260506160507 | 10 | 39 | 3.2 | 9.7 | 0.00 | 0.00 | 0.00 | 58 | 1013.7 |
| 20260506160020 | 10 | 68 | 3.2 | 12.9 | 0.00 | 0.00 | 0.00 | 56 | 1013.8 |
| 20260506155507 | 10 | 101 | 3.2 | 12.9 | 0.00 | 0.00 | 0.00 | 57 | 1013.8 |
| 20260506155005 | 10 | 26 | 3.2 | 9.7 | 0.00 | 0.00 | 0.00 | 55 | 1013.9 |
| 20260506154532 | 10 | 11 | 4.8 | 9.7 | 0.00 | 0.00 | 0.00 | 55 | 1013.9 |
| 20260506154007 | 10 | 161 | 1.6 | 9.7 | 0.00 | 0.00 | 0.00 | 56 | 1014.0 |
| 20260506153509 | 10 | 74 | 4.8 | 11.3 | 0.00 | 0.00 | 0.00 | 55 | 1014.0 |
| 20260506153027 | 10 | 352 | 3.2 | 11.3 | 0.00 | 0.00 | 0.00 | 55 | 1014.0 |
| 20260506152503 | 10 | 46 | 3.2 | 11.3 | 0.00 | 0.00 | 0.00 | 54 | 1014.1 |
| 20260506152006 | 10 | 121 | 1.6 | 14.5 | 0.00 | 0.00 | 0.00 | 55 | 1014.0 |
| 20260506151511 | 10 | 51 | 4.8 | 14.5 | 0.00 | 0.00 | 0.00 | 54 | 1014.0 |
| 20260506151008 | 10 | 6 | 1.6 | 14.5 | 0.00 | 0.00 | 0.00 | 56 | 1014.0 |
| 20260506150504 | 10 | 113 | 1.6 | 14.5 | 0.00 | 0.00 | 0.00 | 55 | 1014.1 |
| 20260506150014 | 10 | 113 | 3.2 | 12.9 | 0.00 | 0.00 | 0.00 | 56 | 1014.0 |
| 20260506145505 | 11 | 142 | 3.2 | 12.9 | 0.00 | 0.00 | 0.00 | 52 | 1014.1 |
| 20260506145007 | 11 | 97 | 6.4 | 12.9 | 0.00 | 0.00 | 0.00 | 52 | 1014.1 |
| 20260506144004 | 12 | 341 | 4.8 | 11.3 | 0.00 | 0.00 | 0.00 | 49 | 1014.1 |
| 20260506143507 | 12 | 122 | 3.2 | 9.7 | 0.00 | 0.00 | 0.00 | 50 | 1014.2 |
| 20260506143004 | 12 | 166 | 1.6 | 9.7 | 0.00 | 0.00 | 0.00 | 51 | 1014.2 |
| 20260506142503 | 11 | 159 | 3.2 | 12.9 | 0.00 | 0.00 | 0.00 | 51 | 1014.3 |
| 20260506142003 | 11 | 36 | 3.2 | 12.9 | 0.00 | 0.00 | 0.00 | 55 | 1014.4 |
| 20260506141504 | 11 | 345 | 1.6 | 14.5 | 0.00 | 0.00 | 0.00 | 52 | 1014.4 |
| 20260506140504 | 11 | 195 | 3.2 | 11.3 | 0.00 | 0.00 | 0.00 | 52 | 1014.5 |
| 20260506140019 | 11 | 41 | 1.6 | 12.9 | 0.00 | 0.00 | 0.00 | 51 | 1014.5 |
| 20260506135509 | 11 | 72 | 4.8 | 12.9 | 0.00 | 0.00 | 0.00 | 48 | 1014.5 |
| 20260506135002 | 11 | 220 | 3.2 | 12.9 | 0.00 | 0.00 | 0.00 | 51 | 1014.5 |
| 20260506134505 | 11 | 221 | 1.6 | 12.9 | 0.00 | 0.00 | 0.00 | 53 | 1014.6 |
| 20260506134005 | 11 | 86 | 3.2 | 9.7 | 0.00 | 0.00 | 0.00 | 54 | 1014.6 |
| 20260506133503 | 11 | 81 | 1.6 | 12.9 | 0.00 | 0.00 | 0.00 | 54 | 1014.7 |
| 20260506133002 | 11 | 1 | 4.8 | 12.9 | 0.00 | 0.00 | 0.00 | 52 | 1014.9 |
| 20260506132506 | 11 | 90 | 3.2 | 9.7 | 0.00 | 0.00 | 0.00 | 53 | 1014.8 |
| 20260506131510 | 11 | 344 | 6.4 | 12.9 | 0.00 | 0.00 | 0.00 | 53 | 1014.9 |
| 20260506131005 | 11 | 242 | 4.8 | 12.9 | 0.00 | 0.00 | 0.00 | 56 | 1015.0 |
| 20260506130505 | 11 | 358 | 3.2 | 12.9 | 0.00 | 0.00 | 0.00 | 53 | 1015.1 |
| 20260506130008 | 11 | 20 | 3.2 | 12.9 | 0.00 | 0.00 | 0.00 | 53 | 1015.2 |
| 20260506125503 | 11 | 283 | 1.6 | 11.3 | 0.00 | 0.00 | 0.00 | 56 | 1015.2 |
| 20260506125004 | 10 | 328 | 3.2 | 11.3 | 0.00 | 0.00 | 0.00 | 56 | 1015.1 |
| 20260506124006 | 10 | 42 | 0.0 | 9.7 | 0.00 | 0.00 | 0.00 | 59 | 1015.1 |
| 20260506123505 | 10 | 6 | 3.2 | 9.7 | 0.00 | 0.00 | 0.00 | 56 | 1015.3 |
| 20260506123007 | 10 | 111 | 1.6 | 8.0 | 0.00 | 0.00 | 0.00 | 58 | 1015.3 |
| 20260506122503 | 10 | 39 | 1.6 | 9.7 | 0.00 | 0.00 | 0.00 | 58 | 1015.2 |
| 20260506122002 | 10 | 56 | 3.2 | 9.7 | 0.00 | 0.00 | 0.00 | 56 | 1015.2 |
| 20260506121502 | 10 | 122 | 3.2 | 9.7 | 0.00 | 0.00 | 0.00 | 58 | 1015.2 |
| 20260506120504 | 9 | 8 | 3.2 | 9.7 | 0.00 | 0.00 | 0.00 | 56 | 1015.2 |
| 20260506120011 | 9 | 84 | 1.6 | 9.7 | 0.00 | 0.00 | 0.00 | 56 | 1015.2 |
| 20260506115503 | 9 | 4 | 3.2 | 9.7 | 0.00 | 0.00 | 0.00 | 55 | 1015.4 |
| 20260506115003 | 9 | 347 | 1.6 | 11.3 | 0.00 | 0.00 | 0.00 | 55 | 1015.3 |
| 20260506114508 | 10 | 2 | 4.8 | 11.3 | 0.00 | 0.00 | 0.00 | 53 | 1015.3 |
| 20260506114005 | 10 | 346 | 1.6 | 6.4 | 0.00 | 0.00 | 0.00 | 54 | 1015.2 |
| 20260506113506 | 10 | 89 | 3.2 | 9.7 | 0.00 | 0.00 | 0.00 | 54 | 1015.3 |
| 20260506113014 | 10 | 251 | 1.6 | 17.7 | 0.00 | 0.00 | 0.00 | 54 | 1015.3 |
| 20260506112504 | 10 | 354 | 3.2 | 30.6 | 0.00 | 0.00 | 0.00 | 51 | 1015.3 |
| 20260506112006 | 11 | 45 | 4.8 | 30.6 | 0.00 | 0.00 | 0.00 | 49 | 1015.2 |
| 20260506111526 | 11 | 195 | 1.6 | 6.4 | 0.00 | 0.00 | 0.00 | 44 | 1015.2 |
| 20260506111003 | 11 | 167 | 1.6 | 4.8 | 0.00 | 0.00 | 0.00 | 44 | 1015.2 |
| 20260506110503 | 10 | 255 | 1.6 | 9.7 | 0.00 | 0.00 | 0.00 | 50 | 1015.2 |
| 20260506110004 | 10 | 259 | 1.6 | 9.7 | 0.00 | 0.00 | 0.00 | 46 | 1015.3 |
| 20260506105503 | 11 | 218 | 3.2 | 8.0 | 0.00 | 0.00 | 0.00 | 46 | 1015.3 |
| 20260506105006 | 11 | 198 | 3.2 | 8.0 | 0.00 | 0.00 | 0.00 | 46 | 1015.3 |
| 20260506104507 | 11 | 230 | 0.0 | 6.4 | 0.00 | 0.00 | 0.00 | 50 | 1015.3 |
| 20260506104005 | 11 | 323 | 3.2 | 6.4 | 0.00 | 0.00 | 0.00 | 48 | 1015.2 |
| 20260506103503 | 11 | 212 | 1.6 | 6.4 | 0.00 | 0.00 | 0.00 | 50 | 1015.2 |
| 20260506103011 | 10 | 231 | 3.2 | 8.0 | 0.00 | 0.00 | 0.00 | 51 | 1015.3 |
| 20260506102503 | 10 | 229 | 3.2 | 9.7 | 0.00 | 0.00 | 0.00 | 53 | 1015.3 |
| 20260506101517 | 10 | 200 | 0.0 | 8.0 | 0.00 | 0.00 | 0.00 | 58 | 1015.4 |
| 20260506101006 | 10 | 204 | 3.2 | 8.0 | 0.00 | 0.00 | 0.00 | 58 | 1015.4 |
| 20260506100507 | 9 | 205 | 3.2 | 8.0 | 0.00 | 0.00 | 0.00 | 56 | 1015.5 |
| 20260506100018 | 9 | 210 | 1.6 | 8.0 | 0.00 | 0.00 | 0.00 | 59 | 1015.6 |
| 20260506095503 | 9 | 255 | 3.2 | 8.0 | 0.00 | 0.00 | 0.00 | 58 | 1015.7 |
| 20260506095004 | 8 | 99 | 0.0 | 8.0 | 0.00 | 0.00 | 0.00 | 62 | 1015.7 |
| 20260506094506 | 8 | 205 | 1.6 | 8.0 | 0.00 | 0.00 | 0.00 | 62 | 1015.7 |
| 20260506094003 | 8 | 35 | 3.2 | 6.4 | 0.00 | 0.00 | 0.00 | 60 | 1015.8 |
| 20260506093502 | 8 | 301 | 3.2 | 4.8 | 0.00 | 0.00 | 0.00 | 62 | 1015.9 |
| 20260506093006 | 8 | 52 | 0.0 | 6.4 | 0.00 | 0.00 | 0.00 | 62 | 1015.9 |
| 20260506092504 | 7 | 24 | 3.2 | 6.4 | 0.00 | 0.00 | 0.00 | 60 | 1016.0 |
| 20260506092007 | 8 | 6 | 1.6 | 4.8 | 0.00 | 0.00 | 0.00 | 61 | 1016.0 |
| 20260506091514 | 8 | 196 | 3.2 | 4.8 | 0.00 | 0.00 | 0.00 | 60 | 1016.0 |
| 20260506091010 | 7 | 224 | 1.6 | 4.8 | 0.00 | 0.00 | 0.00 | 61 | 1016.1 |
| 20260506090506 | 7 | 261 | 0.0 | 6.4 | 0.00 | 0.00 | 0.00 | 63 | 1016.2 |
| 20260506090017 | 7 | 197 | 3.2 | 6.4 | 0.00 | 0.00 | 0.00 | 61 | 1016.2 |
| 20260506085505 | 7 | 281 | 0.0 | 4.8 | 0.00 | 0.00 | 0.00 | 63 | 1016.3 |
| 20260506085006 | 7 | 268 | 1.6 | 8.0 | 0.00 | 0.00 | 0.00 | 63 | 1016.3 |
| 20260506084533 | 7 | 198 | 1.6 | 8.0 | 0.00 | 0.00 | 0.00 | 62 | 1016.4 |
| 20260506084010 | 7 | 239 | 1.6 | 4.8 | 0.00 | 0.00 | 0.00 | 63 | 1016.4 |
| 20260506083504 | 7 | 245 | 1.6 | 4.8 | 0.00 | 0.00 | 0.00 | 63 | 1016.4 |
| 20260506083015 | 7 | 255 | 0.0 | 8.0 | 0.00 | 0.00 | 0.00 | 64 | 1016.4 |
| 20260506082505 | 7 | 268 | 0.0 | 8.0 | 0.00 | 0.00 | 0.00 | 63 | 1016.5 |
| 20260506082003 | 7 | 283 | 1.6 | 4.8 | 0.00 | 0.00 | 0.00 | 63 | 1016.4 |
| 20260506081506 | 6 | 258 | 1.6 | 6.4 | 0.00 | 0.00 | 0.00 | 64 | 1016.5 |
| 20260506081011 | 6 | 239 | 3.2 | 6.4 | 0.00 | 0.00 | 0.00 | 64 | 1016.5 |
| 20260506080506 | 6 | 214 | 1.6 | 6.4 | 0.00 | 0.00 | 0.00 | 64 | 1016.5 |
| 20260506073509 | 6 | 249 | 1.6 | 6.4 | 0.00 | 0.00 | 0.00 | 67 | 1016.6 |
| 20260506073023 | 6 | 210 | 1.6 | 6.4 | 0.00 | 0.00 | 0.00 | 69 | 1016.6 |
| 20260506072507 | 6 | 244 | 4.8 | 6.4 | 0.00 | 0.00 | 0.00 | 69 | 1016.6 |
| 20260506072010 | 6 | 250 | 1.6 | 4.8 | 0.00 | 0.00 | 0.00 | 70 | 1016.7 |
| 20260506071506 | 5 | 245 | 1.6 | 3.2 | 0.00 | 0.00 | 0.00 | 72 | 1016.6 |
| 20260506070504 | 5 | 210 | 0.0 | 3.2 | 0.00 | 0.00 | 0.00 | 73 | 1016.6 |
| 20260506062513 | 2 | 8 | 0.0 | 0.0 | 0.00 | 0.00 | 0.00 | 85 | 1016.6 |
| 20260506061010 | 2 | 7 | 0.0 | 1.6 | 0.00 | 0.00 | 0.00 | 88 | 1016.5 |
| 20260506060509 | 2 | 7 | 0.0 | 1.6 | 0.00 | 0.00 | 0.00 | 89 | 1016.5 |
| 20260506050502 | 0 | 53 | 0.0 | 0.0 | 0.00 | 0.00 | 0.00 | 92 | 1016.8 |
| 20260506045002 | 0 | 54 | 0.0 | 1.6 | 0.00 | 0.00 | 0.00 | 92 | 1017.0 |
| 20260506044514 | 0 | 54 | 0.0 | 1.6 | 0.00 | 0.00 | 0.00 | 92 | 1017.1 |
| 20260506044003 | -1 | 274 | 0.0 | 0.0 | 0.00 | 0.03 | 0.00 | 92 | 1017.1 |
| 20260506043503 | -1 | 274 | 0.0 | 0.0 | 0.00 | 0.03 | 0.00 | 92 | 1017.0 |
| 20260506043015 | -1 | 274 | 0.0 | 0.0 | 0.00 | 0.03 | 0.00 | 92 | 1017.0 |
| 20260506040503 | -1 | 274 | 0.0 | 0.0 | 0.00 | 0.03 | 0.00 | 92 | 1016.9 |
| 20260506034004 | -1 | 274 | 0.0 | 0.0 | 0.00 | 0.03 | 0.00 | 91 | 1017.2 |
| 20260506033503 | -2 | 274 | 0.0 | 0.0 | 0.00 | 0.03 | 0.00 | 91 | 1017.3 |
| 20260506033007 | -2 | 274 | 0.0 | 0.0 | 0.00 | 0.03 | 0.00 | 91 | 1017.3 |
| 20260506030021 | -1 | 274 | 0.0 | 0.0 | 0.00 | 0.03 | 0.00 | 90 | 1017.3 |
| 20260506014522 | -1 | 274 | 0.0 | 0.0 | 0.00 | 0.03 | 0.00 | 89 | 1017.5 |
| 20260506014006 | -1 | 274 | 0.0 | 0.0 | 0.00 | 0.05 | 0.00 | 90 | 1017.5 |
| 20260506011518 | 0 | 245 | 0.0 | 0.0 | 0.00 | 0.05 | 0.00 | 89 | 1017.4 |
| 20260506004006 | 0 | 245 | 0.0 | 0.0 | 0.00 | 0.05 | 0.00 | 89 | 1017.7 |
| 20260506001521 | 0 | 245 | 0.0 | 0.0 | 0.00 | 0.08 | 0.00 | 88 | 1017.8 |
| 20260506001007 | 0 | 245 | 0.0 | 0.0 | 0.00 | 0.08 | 0.00 | 88 | 1017.9 |
| 20260506000504 | 0 | 245 | 0.0 | 0.0 | 0.00 | 0.08 | 0.00 | 87 | 1017.8 |
| 20260506000007 | 0 | 245 | 0.0 | 0.0 | 0.00 | 0.08 | 0.00 | 87 | 1017.9 |
| 20260505233503 | 0 | 245 | 0.0 | 0.0 | 0.00 | 0.08 | 0.00 | 87 | 1018.0 |
| 20260505230005 | 1 | 191 | 0.0 | 0.0 | 0.00 | 0.08 | 0.00 | 86 | 1018.3 |
| 20260505223504 | 1 | 186 | 0.0 | 1.6 | 0.00 | 0.08 | 0.08 | 86 | 1018.3 |
| 20260505223003 | 2 | 186 | 0.0 | 1.6 | 0.00 | 0.08 | 0.08 | 86 | 1018.3 |
| 20260505220502 | 2 | 184 | 0.0 | 0.0 | 0.00 | 0.08 | 0.08 | 85 | 1018.4 |
| 20260505220008 | 2 | 184 | 0.0 | 0.0 | 0.00 | 0.08 | 0.08 | 84 | 1018.4 |
| 20260505215503 | 2 | 184 | 0.0 | 0.0 | 0.00 | 0.08 | 0.08 | 84 | 1018.4 |
| 20260505215003 | 2 | 184 | 0.0 | 0.0 | 0.00 | 0.08 | 0.08 | 84 | 1018.5 |
| 20260505214503 | 2 | 184 | 0.0 | 0.0 | 0.00 | 0.08 | 0.08 | 84 | 1018.5 |
| 20260505214003 | 2 | 58 | 0.0 | 1.6 | 0.00 | 0.08 | 0.08 | 83 | 1018.5 |
| 20260505213503 | 2 | 58 | 0.0 | 1.6 | 0.00 | 0.08 | 0.08 | 82 | 1018.5 |
| 20260505213003 | 2 | 58 | 0.0 | 0.0 | 0.00 | 0.08 | 0.08 | 82 | 1018.5 |
| 20260505212503 | 2 | 58 | 0.0 | 1.6 | 0.00 | 0.08 | 0.08 | 82 | 1018.4 |
| 20260505212003 | 3 | 57 | 0.0 | 1.6 | 0.00 | 0.08 | 0.08 | 81 | 1018.4 |
| 20260505211503 | 3 | 57 | 0.0 | 0.0 | 0.00 | 0.08 | 0.08 | 80 | 1018.4 |
| 20260505211003 | 3 | 57 | 0.0 | 1.6 | 0.00 | 0.08 | 0.08 | 80 | 1018.5 |
| 20260505210502 | 3 | 57 | 0.0 | 1.6 | 0.00 | 0.08 | 0.08 | 79 | 1018.4 |
| 20260505210004 | 3 | 61 | 0.0 | 1.6 | 0.00 | 0.08 | 0.08 | 79 | 1018.5 |
| 20260505205506 | 3 | 131 | 0.0 | 1.6 | 0.00 | 0.08 | 0.08 | 78 | 1018.5 |
| 20260505205004 | 4 | 136 | 0.0 | 4.8 | 0.00 | 0.08 | 0.08 | 78 | 1018.4 |